Other Public Products
Issued by NWS Grand Forks, ND

Home | Current Version | Previous Version | Text Only | Print | Product List | Glossary Off
Versions: 1 2 3 4 5 6 7 8 9 10 11 12 13 14 15 16 17 18 19 20 21 22 23 24 25 26 27 28 29 30 31 32 33 34 35 36 37 38 39 40 41 42 43 44 45 46 47 48 49 50

000
FPUS83 KFGF 291331
OPUFGF
PRAIRIE TO PINES WEATHER ROUNDUP
NATIONAL WEATHER SERVICE EASTERN NORTH DAKOTA/GRAND FORKS ND
800 AM CDT THU SEP 29 2016

 **SATELLITE DATA USED TO AUGMENT SKY COVER AT AUTOMATED STATIONS**
 *****  WEATHER ACROSS EASTERN NORTH DAKOTA  *****

CITY           SKY/WX    TMP DP  RH WIND       PRES   REMARKS
GRAND FORKS    CLOUDY    50  46  86 SE5       30.46S
GRAND FORKS AF MOCLDY    45  45 100 SE3       30.47R
GRAND CITY NWS   N/A     48 N/A N/A SE5         N/A
BUXTON           N/A     57  57  99 SE5         N/A
DEVILS LAKE    CLEAR     47  46  97 SE5       30.44R
FARGO          CLOUDY    50  47  89 E3        30.47S
WAHPETON ARPT  PTSUNNY   45  43  93 CALM      30.49R
$$

 *****  WEATHER ACROSS CENTRAL AND WESTERN NORTH DAKOTA  *****

CITY           SKY/WX    TMP DP  RH WIND       PRES   REMARKS
JAMESTOWN      CLEAR     40  40 100 SE5       30.44S FOG
BISMARCK       CLEAR     39  39 100 NE6       30.40R
MINOT          CLEAR     46  43  89 SE9       30.35S
MINOT AFB      CLEAR     43  41  95 SE12      30.34S
GARRISON         N/A     45  45 100 SE7       30.36R
WILLISTON      CLEAR     52  42  69 SE9       30.25F
DICKINSON      CLEAR     41  39  93 SE13      30.28S
HETTINGER      CLEAR     40  38  93 E7        30.33S
$$

 *****  OTHER OBSERVATIONS NORTHEAST NORTH DAKOTA  *****

CITY           SKY/WX    TMP DP  RH WIND       PRES   REMARKS
WALHALLA       FAIR      39  39 100 CALM      30.46S
LANGDON        FAIR      43  43 100 SE8       30.45R
CAVALIER       FAIR      41  41 100 CALM      30.46S FOG
GRAFTON        FAIR      45  45 100 SE3       30.48S
CANDO          FAIR      41  41 100 SE6       30.45S
FORT TOTTEN      N/A     45  45 100 SE6       29.95
ROLLA          FAIR      45  45 100 S9        30.41F
RUGBY          FAIR      46  45  93 SE8       30.40S
 ***** THE ABOVE OBSERVATIONS ARE NON NWS ARE NOT QUALITY
        CONTROLLED AND MAY MIS-REPORT RAIN FOR SNOW...
$$

 *****  OTHER OBSERVATIONS SOUTHEAST NORTH DAKOTA *****

CITY           SKY/WX    TMP DP  RH WIND       PRES   REMARKS
COOPERSTOWN    FAIR      43  43 100 SE5       30.46S
VALLEY CITY    FAIR      41  41 100 CALM      30.48R
OAKES          NOT AVBL
GWINNER          N/A     37  37 100 SW3       30.47S VSB 1/2
SHEYENNE NWR     N/A     37  36  97 CALM      29.95S
BUFFALO          N/A     46  44  94 SE5         N/A
WYNDMERE         N/A     45  45 100 CALM        N/A
 ***** THE ABOVE OBSERVATIONS ARE NON NWS ARE NOT QUALITY
       CONTROLLED AND MAY MIS-REPORT RAIN FOR SNOW...
$$

  *****  WEATHER ACROSS NORTHERN MINNESOTA  *****

CITY           SKY/WX    TMP DP  RH WIND       PRES   REMARKS
FLAG ISLAND    CLOUDY    55  46  71 SE6       30.49S
WARROAD        CLOUDY    52  46  82 CALM      30.50R
ROSEAU         CLOUDY    52  46  82 CALM      30.49S
HALLOCK        CLOUDY    48  46  93 SE6       30.47S
THF RVR FALLS  CLOUDY    51  47  86 E5        30.49S
HALSTAD          N/A     50  46  87 CALM        N/A
FOSSTON        CLOUDY    46  45  93 CALM      30.50S
BAUDETTE       CLOUDY    50  48  93 CALM      30.51R
WASKISH        CLOUDY    50  48  93 CALM      30.51R
CROOKSTON      CLOUDY    52  48  87 CALM      30.49R
$$
  *****  WEATHER ACROSS CENTRAL AND WEST MINNESOTA  *****

CITY           SKY/WX    TMP DP  RH WIND       PRES   REMARKS
BEMIDJI        CLOUDY    49  48  95 CALM      30.50R
PARK RAPIDS    CLOUDY    50  46  86 CALM      30.49R
WADENA         CLOUDY    50  48  93 CALM      30.49R
DETROIT LAKES  CLOUDY    46  45  93 CALM      30.50R
MOORHEAD       CLEAR     46  45  93 CALM      30.49R
FERGUS FALLS   CLOUDY    50  46  87 CALM      30.51R
ELBOW LAKE     CLOUDY    51  47  87 SE3       30.49R
MORRIS MN      CLEAR     46  45  93 NE3       30.47S
STAPLES        CLOUDY    52  48  87 CALM      30.49R
WHEATON        FOG       43  43 100 CALM      30.50R VSB 3/4
$$
  *****  WEATHER ELSEWHERE ACROSS MINNESOTA  *****

CITY           SKY/WX    TMP DP  RH WIND       PRES   REMARKS
DULUTH         CLOUDY    53  51  93 E7        30.49R
INTRNTL FALLS  CLOUDY    52  49  89 CALM      30.51R
ELY            CLOUDY    52  48  87 CALM      30.51S
CLOQUET        CLOUDY    54  48  82 E6        30.49R
BRAINERD       CLOUDY    52  50  93 CALM      30.49R
HIBBING        CLOUDY    51  50  96 CALM      30.50R
ALEXANDRIA     CLOUDY    47  46  97 N3        30.49R
SAINT CLOUD    CLEAR     48  46  93 NE3       30.47R
MINNEAPOLIS    MOCLDY    49  46  90 NE7       30.46R
$$

  *****  WEATHER ACROSS SOUTH DAKOTA  *****

CITY           SKY/WX    TMP DP  RH WIND       PRES   REMARKS
SIOUX FALLS    CLOUDY    41  40  96 CALM      30.46R
BROOKINGS      CLOUDY    39  37  93 CALM      30.47R
WATERTOWN      CLOUDY    38  36  92 CALM      30.46R
HURON          CLOUDY    38  38 100 SE3       30.45R
SISSETON         N/A     36  34  92 CALM      30.47R
ABERDEEN       FOG       36  35  96 CALM      30.46R VSB 1/4
MITCHELL       FOG       38  38 100 CALM      30.47R VSB 1/2
PIERRE         CLEAR     41  40  96 CALM      30.39S
MOBRIDGE       CLEAR     46  41  82 SE10      30.38R
RAPID CITY     CLEAR     39  33  79 SE8       30.31S
$$

  *****  SOME WEATHER IN NEARBY STATES *****

CITY           SKY/WX    TMP DP  RH WIND       PRES   REMARKS
GLASGOW MT     CLEAR     53  45  74 SE9       30.11F
GREAT FALLS MT CLEAR     41  39  93 NW3       30.09F
CHEYENNE WY    CLOUDY    43  37  79 W3        30.38S
SCOTTSBLUFF NE CLEAR     45  37  73 E8        30.34R
OMAHA NE       CLEAR     46  42  86 N8        30.42R
DES MOINES IA  PTCLDY    52  49  89 N7        30.37R
DAVENPORT IA   CLOUDY    53  50  89 N16       30.27S
CHICAGO IL     CLOUDY    62  56  80 N20G25    30.14R
EAU CLAIRE WI  CLEAR     49  48  97 N5        30.43R
LA CROSSE WI   CLEAR     53  50  89 NW9       30.39R
$$

  *****  SOME NATIONAL WEATHER *****

CITY           SKY/WX    TMP DP  RH WIND       PRES   REMARKS
LA GUARDIA NY  CLOUDY    63  54  72 E25G35    30.33R
RALEIGH NC     PTSUNNY   66  65  96 CALM      30.02R
ATLANTA GA     MOSUNNY   62  54  74 NW9       29.99R
NEW ORLEANS LA SUNNY     76  71  85 W3        30.05R
OKLAHOMA CITY  PTCLDY    54  48  80 N9        30.33R
ALBUQUERQUE NM MOCLDY    65  37  35 E8        30.38R
SALT LAKE CITY MOCLDY    63  50  62 SE10      30.20R
LOS ANGELES CA PTCLDY    71  63  75 NE3       29.98R
BOISE ID       PTCLDY    71  40  32 SE9       29.95R
SEATTLE WA     PTCLDY    48  40  73 N7        30.06S
$$

*** WEATHER ACROSS MANITOBA...SASKATCHEWAN AND ONTARIO ***
                ***ONTARIO***

CITY           SKY/WX    TMP DP  RH WIND       PRES   REMARKS
GERALDTON      CLOUDY    50  48  93 N2        30.53R
THUNDER BAY    PTCLDY    48  48 100 SW2       30.51R
SIOUX LOOKOUT  MOCLDY    50  48  93 CALM      30.51F
TORONTO        LGT RAIN  59  54  82 E15G26    30.28R
BIG TROUT LK   MOCLDY    45  45 100 NW3       30.48R
PICKLE LAKE    CLOUDY    50  48  93 VRB2      30.51R
DRYDEN         CLOUDY    50  48  93 CALM      30.51S
KENORA         CLOUDY    52  48  87 SE3       30.50S
$$
                *** MANITOBA***

CITY           SKY/WX    TMP DP  RH WIND       PRES   REMARKS
BRANDON        PTCLDY    39  37  93 E5        30.40S
DAUPHIN        MOCLDY    39  39 100 VRB3      30.37S
ISLAND LAKE    MOCLDY    48  46  93 VRB2      30.45S
PILOT MOUND      N/A     43  41  93 SE9         N/A
THE PAS        LGT RAIN  50  45  81 S8        30.38F
THOMPSON       MOCLDY    30  30 100 CALM      30.42S
WINNIPEG       PTCLDY    45  43  93 S7        30.46S
LYNN LAKE      MOCLDY    34  32  93 S5        30.34F
CHURCHILL      PTCLDY    39  34  81 W9        30.34R
GILLAM         PTCLDY    36  34  93 SW3       30.44R
$$
                ***SASKATCHEWAN***

CITY           SKY/WX    TMP DP  RH WIND       PRES   REMARKS
ESTEVAN        PTCLDY    45  43  93 E8        30.27S
KINDERSLEY     PTCLDY    43  41  93 NE10G17   30.13F
LLOYDMINSTER   MOCLDY    41  39  93 NE5       30.22S
PRINCE ALBERT  MOCLDY    45  43  93 E8        30.24F
REGINA         PTCLDY    50  43  76 SE15      30.21F
YORKTON        PTCLDY    46  45  93 SE10      30.29F   C1F1C2F2C3F3C4F4C5F5C6F6C7F7C8F8C9F9CaFaCbFbCcFcCdFdCe!



USA.gov is the U.S. government's official web portal to all federal, state and local government web resources and services.